Regional Weather Roundup
Issued by NWS

Home | Current Version | Previous Version | Text Only | Print | Product List | Glossary On
Versions: 1 2 3 4 5 6 7 8 9 10 11 12 13 14 15 16 17 18 19 20 21 22 23 24 25 26 27 28 29 30 31 32 33 34 35 36 37 38 39 40 41 42 43 44 45 46 47 48 49 50
625
ASUS44 KLIX 310805
RWRLA
LOUISIANA WEATHER ROUNDUP
NATIONAL WEATHER SERVICE NEW ORLEANS LA
200 AM CST SAT JAN 31 2015

NOTE: "FAIR" INDICATES FEW OR NO CLOUDS BELOW 12,000 FEET WITH NO
      SIGNIFICANT WEATHER AND/OR OBSTRUCTIONS TO VISIBILITY.
      SKY/WX - SKY CONDITION AND SIGNIFICANT WEATHER.
      TMP - AIR TEMPERATURE.    DP   - DEWPOINT TEMPERATURE.
      RH  - RELATIVE HUMIDITY.  PRES - PRESSURE.
      HX  - HEAT INDEX.         WCI  - WIND CHILL INDEX.

*  THESE STATIONS ARE NOT NWS OR FAA STATIONS AND ARE NOT UNDER
   NWS QUALITY CONTROL.

LAZ040-048-061>063-065-066-069-310900-
SOUTHEAST LOUISIANA

CITY           SKY/WX    TMP DP  RH WIND       PRES   REMARKS
N.O. AUDUBON     N/A     50  36  57 MISG        N/A
N.O. INTL ARPT PTCLDY    50  34  54 E9        30.31S
N.O. LAKEFRONT CLEAR     51  36  56 E17       30.32S
N.O. DOWNTOWN* NOT AVBL
SLIDELL        CLEAR     40  32  73 NE6       30.32S
BATON ROUGE    CLEAR     39  31  72 NE5       30.32F
BOOTHVILLE     PTCLDY    52  42  69 NE9       30.30F
BELLE CHASSE   CLEAR     40  35  83 NE5       30.30F
BOGALUSA*        N/A     35  32  88 CALM      30.35S
GALLIANO*      PTSUNNY   52  43  72 MISG      30.30F
NEW ROADS*     FAIR      41  32  71 NE8       30.32F
GONZALES*      FAIR      43  34  70 NE3       30.31F
HAMMOND*       CLEAR     41  32  70 CALM      30.34F
HOUMA*         PTCLDY    44  37  77 NE6       30.29F
PORT FOURCHON* SUNNY     55  43  62 NE10      30.31F

$$

LAZ041-044-053-054-310900-
SOUTHWEST LOUISIANA

CITY           SKY/WX    TMP DP  RH WIND       PRES   REMARKS
LAKE CHARLES   CLEAR     42  36  79 NE6       30.29S
LAFAYETTE      CLEAR     43  34  70 NE3       30.29F
PATTERSON      PTCLDY    45  34  65 E9        30.27F
SALT POINT       N/A     43  37  79 CALM      30.27F
NEW IBERIA     CLEAR     45  34  65 E6        30.29F
CHENAULT AIRPK CLEAR     42  36  76 NE5       30.30S

$$

LAZ027-028-310900-
CENTRAL LOUISIANA

CITY           SKY/WX    TMP DP  RH WIND       PRES   REMARKS
FORT POLK      MOCLDY    43  34  70 E9        30.29F
ALEXANDRIA INT PTCLDY    42  33  70 E5        30.31F
ALEXANDRIA     PTCLDY    40  33  76 E5        30.32F

$$

LAZ001-002-310900-
NORTHWEST LOUISIANA

CITY           SKY/WX    TMP DP  RH WIND       PRES   REMARKS
SHREVEPORT     CLOUDY    44  32  62 E7        30.32F
BARKSDALE AFB  CLOUDY    43  31  64 SE3       30.33S
DTN SHREVEPORT CLOUDY    44  30  57 E6        30.34S

$$

LAZ014-016-310900-
NORTHEAST LOUISIANA

CITY           SKY/WX    TMP DP  RH WIND       PRES   REMARKS
MONROE         MOCLDY    40  32  73 NE6       30.35F
TALLULAH       CLEAR     38  31  76 NE5       30.35F WCI  34

$$




USA.gov is the U.S. government's official web portal to all federal, state and local government web resources and services.